STARLINK-5138, 54078

Orbit data source: Space-Track

STARLINK-5138, 54078 is a payload satellite owned by SpaceX/Seattle (US) in LEO that was launched on Thu, 20 Oct 2022 UTC via an FALCON 9 launch vehicle from the Air Force Eastern Test Range (AFETR). Payload-class satellites include a variety of spacecraft equipped with specific instruments for various scientific and technological missions. These include communications satellites like Starlink; space stations such as the ISS; scientific satellites like the Hubble; Earth observation satellites from companies like Planet Labs, Umbra, and HawkEye 360; GPS; miniature CubeSats for education and research; and military/defense satellites.

Loading next visibility...
Identifier
54078, 2022-136AD
Orbit
LEO
Country
Flag of USUS
Related business
Manufacturer
SpaceX/Seattle
Mission
Operational Commercial Communications
Bus & Motor
STARLINK, Unknown motor
Mass
305 kg wet, ~290 kg dry
Launch date (UTC)
2022-10-20 (3 years ago)
Launch vehicle
FALCON 9
Launch site
Air Force Eastern Test Range (AFETR)
Object type
Payload
Rocket body
Debris
Shape & HBR
Box + 1 Pan, 4.4 m
Radar Cross Section
13.562 m², Large (>1 m²)

Expand to show TLE details & history
Last TLE update: 6 hours ago

TLE from 6 hours ago
0 STARLINK-5138
1 54078U 22136AD  25261.25011574  .01263303  00000-0  51751-1 0  9997
2 54078  53.2187  17.8209 0001688  84.6829  70.7810 15.20749294  5808
Epoch: 2025-09-18T06:00Z
TLE epoch observation values (Epoch: 2025-09-18T06:00:09.999Z)
Latitude
19.45148°
Longitude
95.14239°
Altitude
503.627 km
Speed
7.616 km/s
True Right ascension
12h 10m 23s
True Declination
19° 20' 23"
Sunlit
Object was in daylight at epoch
Visualization orbit readout
Latitude
Unknown
Longitude
Unknown
Altitude
Unknown
Speed
Unknown
Apparent Right ascension
Unknown
Apparent Declination
Unknown
Sunlit
N/A
Visualization observer readout
Local Sidereal Time
05:03:32
Azimuth
Unknown
Elevation
Unknown
Doppler factor
Unknown
Orbital elements
Apogee altitude
504.987 km
Perigee altitude
502.664 km
Semi-major axis
6,881.962 km
Eccentricity
0.00017
Inclination
53.2187°
RAAN
17.8209°
Arg. of periapsis
84.6829°
True anomaly
70.79927°
Mean anomaly
70.781°
Eccentric anomaly
70.79013°
Mean motion
3.80167 °/min
Orbital period
94.7 mins
BSTAR
0.051751
Loading maneuver chart data...
Computing Atmospheric mass density...
Loading historical data...
Loading historical data...
Loading historical data...
Loading historical data...
Loading historical data...
Loading historical data...
Loading historical data...

Documentation

Showing up to 5 results
|